Change the Weather History Date:

Friday, November 22, 2013

  Actual Average Record
Temperature  
Mean Temperature 37 °F -  
Max Temperature 44 °F 41 °F 64 °F (1999)
Min Temperature 30 °F 29 °F 12 °F (2000)
Degree Days  
Heating Degree Days 28    
Moisture  
Dew Point 39 °F    
Average Humidity 95    
Maximum Humidity 100    
Minimum Humidity 75    
Precipitation  
Precipitation 0.00 in - - ()
Sea Level Pressure  
Sea Level Pressure 30.16 in    
Wind  
Wind Speed 7 mph ()    
Max Wind Speed 29 mph    
Max Gust Speed 37 mph    
Visibility 4.8 miles    
Events Fog , Rain , Snow    
Averages and records for this station are not official NWS values.
T = Trace of Precipitation, MM = Missing Value Source: Averaged Metar Reports

Daily Weather History Graph

Daily Weather History Graph

Search for Another Location

Airport or City:

Trip Planner

Search our weather history database for the weather conditions in past years. The results will help you decide how hot, cold, wet, or windy it might be!

Date:

Astronomy

Nov. 22, 2013 Rise Set
Actual Time 7:26 AM EST 4:55 PM EST
Civil Twilight 6:54 AM EST 5:26 PM EST
Nautical Twilight 6:20 AM EST 6:01 PM EST
Astronomical Twilight 5:46 AM EST 6:35 PM EST
Moon 9:28 PM EST (11/22) 11:07 AM EST (11/22)
Length of Visible Light 10h 31m
Length of Day
9h 29m
Waning Gibbous, 78% of the Moon is Illuminated
Nov 22
Waning Gibbous
Nov 25
Last Quarter
Dec 2
New
Dec 9
First Quarter
Dec 17
Full

Hourly Weather History & Observations

Time (EST) Temp. Windchill Dew Point Humidity Pressure Visibility Wind Dir Wind Speed Gust Speed Precip Events Conditions
12:00 AM 42.8 °F 40.1 °F 41.0 °F 93% 30.20 in 2.0 mi South 4.6 mph - N/A Rain Light Rain
1:00 AM 42 °F - 42 °F 99% 30.18 in 2 mi SSE 5.8 mph - -   Overcast
1:00 AM 42.8 °F 39.3 °F 41.0 °F 93% 30.18 in 2.0 mi South 5.8 mph - N/A Rain Light Rain
2:00 AM 42.8 °F 40.1 °F 42.8 °F 100% 30.17 in 2.0 mi SSW 4.6 mph - N/A Rain Light Rain
3:00 AM 42.8 °F 39.3 °F 42.8 °F 100% 30.17 in 2.0 mi SW 5.8 mph - N/A Rain Light Rain
4:00 AM 42.8 °F 40.1 °F 42.8 °F 100% 30.14 in 2.0 mi WSW 4.6 mph - N/A Rain Light Rain
5:00 AM 42.8 °F 41.1 °F 42.8 °F 100% 30.14 in 2.0 mi West 3.5 mph - N/A   Overcast
6:00 AM 42.8 °F 40.1 °F 42.8 °F 100% 30.13 in 2.0 mi West 4.6 mph - N/A   Overcast
6:11 AM 42.8 °F 40.1 °F 42.8 °F 100% 30.14 in 1.8 mi West 4.6 mph - N/A   Light Drizzle
6:28 AM 42.8 °F 41.1 °F 42.8 °F 100% 30.13 in 2.2 mi West 3.5 mph - N/A   Light Drizzle
7:00 AM 43 °F - 42 °F 97% 30.13 in 2 mi West 3.5 mph - -   Overcast
7:00 AM 42.8 °F 41.1 °F 42.8 °F 100% 30.13 in 2.2 mi West 3.5 mph - N/A   Light Drizzle
7:15 AM 42.8 °F 41.1 °F 42.8 °F 100% 30.13 in 1.8 mi West 3.5 mph - N/A   Overcast
7:35 AM 42.8 °F 40.1 °F 42.8 °F 100% 30.13 in 1.5 mi West 4.6 mph - N/A   Overcast
7:46 AM 42.8 °F 39.3 °F 42.8 °F 100% 30.14 in 1.5 mi West 5.8 mph - N/A   Light Drizzle
8:00 AM 42.8 °F 40.1 °F 42.8 °F 100% 30.14 in 1.2 mi WNW 4.6 mph - N/A   Light Drizzle
8:11 AM 42.8 °F 40.1 °F 42.8 °F 100% 30.13 in 1.0 mi WNW 4.6 mph - N/A   Light Drizzle
8:44 AM 42.8 °F 41.1 °F 42.8 °F 100% 30.12 in 0.8 mi NW 3.5 mph - N/A   Overcast
9:00 AM 42.8 °F 40.1 °F 42.8 °F 100% 30.12 in 0.5 mi West 4.6 mph - N/A Fog Fog
9:34 AM 42.8 °F 40.1 °F 42.8 °F 100% 30.13 in 0.8 mi West 4.6 mph - N/A   Overcast
10:00 AM 42.8 °F 39.3 °F 42.8 °F 100% 30.13 in 0.8 mi West 5.8 mph - N/A   Overcast
10:36 AM 44.6 °F 41.4 °F 42.8 °F 93% 30.12 in 1.5 mi West 5.8 mph - N/A Rain Light Rain Showers
10:46 AM 44.6 °F 42.2 °F 44.6 °F 100% 30.11 in 2.0 mi NW 4.6 mph - N/A Rain Light Rain Showers
11:00 AM 44.6 °F 40.7 °F 44.6 °F 100% 30.12 in 2.5 mi West 6.9 mph - N/A Rain Light Rain Showers
11:46 AM 44.6 °F 40.7 °F 44.6 °F 100% 30.10 in 2.2 mi WSW 6.9 mph - N/A Rain Light Rain Showers
12:00 PM 44.6 °F 40.7 °F 44.6 °F 100% 30.10 in 2.0 mi West 6.9 mph - N/A Rain Light Rain Showers
12:45 PM 44.6 °F 38.8 °F 42.8 °F 93% 30.10 in 2.2 mi West 11.5 mph - N/A Rain Light Rain Showers
1:00 PM 44 °F - 44 °F 97% 30.10 in 2 mi West 9.2 mph - -   Overcast
1:00 PM 44.6 °F 39.7 °F 42.8 °F 93% 30.10 in 2.2 mi West 9.2 mph - N/A Rain Light Rain Showers
1:32 PM 42.8 °F 36.2 °F 41.0 °F 93% 30.09 in 2.5 mi WNW 12.7 mph 20.7 mph N/A Rain Light Rain Showers
1:46 PM 42.8 °F 36.2 °F 41.0 °F 93% 30.10 in 3.0 mi NW 12.7 mph 19.6 mph N/A Rain Light Rain Showers
2:00 PM 41.0 °F 32.5 °F 39.2 °F 93% 30.11 in 6.0 mi NW 17.3 mph 27.6 mph N/A Rain Light Rain Showers
2:14 PM 39.2 °F 31.2 °F 37.4 °F 93% 30.12 in 6.0 mi NW 13.8 mph 25.3 mph N/A Rain Light Rain Showers
2:31 PM 39.2 °F 29.6 °F 37.4 °F 93% 30.12 in 4.0 mi NW 19.6 mph 34.5 mph N/A Rain Light Rain Showers
3:00 PM 37.4 °F 28.5 °F 35.6 °F 93% 30.14 in 15.0 mi NW 15.0 mph 23.0 mph N/A Rain Light Rain Showers
3:39 PM 37.4 °F 28.5 °F 35.6 °F 93% 30.15 in 6.0 mi NW 15.0 mph 25.3 mph N/A Rain Light Rain Showers
4:00 PM 35.6 °F 25.9 °F 33.8 °F 93% 30.17 in 6.0 mi NW 16.1 mph 27.6 mph N/A Rain Light Rain Showers
4:27 PM 35.6 °F 25.5 °F 33.8 °F 93% 30.17 in 8.0 mi NW 17.3 mph 23.0 mph N/A   Overcast
5:00 PM 35.6 °F 28.0 °F 33.8 °F 93% 30.18 in 4.0 mi NW 10.4 mph 21.9 mph N/A   Light Drizzle
5:33 PM 33.8 °F 23.9 °F 32.0 °F 93% 30.20 in 10.0 mi NW 15.0 mph 26.5 mph N/A   Mostly Cloudy
6:00 PM 33.8 °F 24.3 °F 32.0 °F 93% 30.22 in 10.0 mi NW 13.8 mph 25.3 mph N/A   Overcast
6:13 PM 33.8 °F 23.9 °F 30.2 °F 87% 30.23 in 10.0 mi NW 15.0 mph 21.9 mph N/A Snow Light Snow Showers
7:00 PM 33 °F - 30 °F 82% 30.24 in 10 mi NNW 17.3 mph - -  
7:00 PM 33.8 °F 23.5 °F 30.2 °F 87% 30.24 in 10.0 mi NNW 16.1 mph 25.3 mph N/A Snow Light Snow Showers
7:39 PM 33.8 °F 20.3 °F 26.6 °F 75% 30.25 in 15.0 mi NNW 28.8 mph 36.8 mph N/A   Mostly Cloudy
8:00 PM 32.0 °F 19.5 °F 26.6 °F 80% 30.26 in 15.0 mi NNW 21.9 mph - N/A   Scattered Clouds
9:00 PM 32.0 °F 22.1 °F 24.8 °F 75% 30.28 in 15.0 mi NNW 13.8 mph 20.7 mph N/A   Partly Cloudy
10:00 PM 30.2 °F 23.4 °F 26.6 °F 86% 30.28 in 15.0 mi NW 6.9 mph - N/A   Partly Cloudy
11:00 PM 30.2 °F 26.7 °F 26.6 °F 86% 30.27 in 15.0 mi NW 3.5 mph - N/A   Scattered Clouds